Worland, WY

4:38 AM MDT on June 23, 2017 (GMT -0600)
Worland Municipal

Weather History for KWRL - October, 2013

Change the Weather History Date:

Sunday, October 13, 2013

  Actual Average Record
Temperature  
Mean Temperature 39 °F 47 °F  
Max Temperature 48 °F 62 °F 84 °F (1996)
Min Temperature 30 °F 32 °F 11 °F (2008)
Degree Days  
Heating Degree Days 26 18  
Month to date heating degree days 281 208  
Since 1 July heating degree days 427 465  
Cooling Degree Days 0 0  
Month to date cooling degree days 0 0  
Year to date cooling degree days 852 535  
Moisture  
Dew Point 34 °F    
Average Humidity 81    
Maximum Humidity 100    
Minimum Humidity 61    
Precipitation  
Precipitation 0.06 in 0.03 in 0.31 in (1975)
Month to date precipitation 1.56 0.38  
Year to date precipitation 7.40 6.68  
Sea Level Pressure  
Sea Level Pressure 30.11 in    
Wind  
Wind Speed 5 mph (NNW)    
Max Wind Speed 15 mph    
Max Gust Speed 18 mph    
Visibility 10 miles    
Events Rain    
T = Trace of Precipitation, MM = Missing Value Source: NWS Daily Summary

Daily Weather History Graph

Daily Weather History Graph

Search for Another Location

Airport or City:

Trip Planner

Search our weather history database for the weather conditions in past years. The results will help you decide how hot, cold, wet, or windy it might be!

Date:

Astronomy

Oct. 13, 2013 Rise Set
Actual Time 7:24 AM MDT 6:30 PM MDT
Civil Twilight 6:55 AM MDT 6:59 PM MDT
Nautical Twilight 6:21 AM MDT 7:33 PM MDT
Astronomical Twilight 5:48 AM MDT 8:06 PM MDT
Moon 3:34 PM MDT (10/13) 1:26 AM MDT (10/13)
Length of Visible Light 12h 04m
Length of Day
11h 06m
Waxing Gibbous, 70% of the Moon is Illuminated
Oct 13
Waxing Gibbous
Oct 18
Full
Oct 26
Last Quarter
Nov 3
New
Nov 9
First Quarter

Hourly Weather History & Observations

Time (MDT) Temp. Windchill Dew Point Humidity Pressure Visibility Wind Dir Wind Speed Gust Speed Precip Events Conditions
12:53 AM 36.0 °F - 33.1 °F 89% 30.10 in 10.0 mi Calm Calm - N/A   Clear
1:53 AM 36.0 °F - 33.1 °F 89% 30.10 in 10.0 mi Calm Calm - N/A   Clear
2:53 AM 34.0 °F - 33.1 °F 96% 30.10 in 10.0 mi Calm Calm - N/A   Clear
3:53 AM 32.0 °F 27.5 °F 30.0 °F 92% 30.11 in 10.0 mi SSW 4.6 mph - N/A   Clear
4:53 AM 30.9 °F - 30.0 °F 96% 30.11 in 10.0 mi Calm Calm - N/A   Clear
5:53 AM 30.9 °F - 28.9 °F 92% 30.12 in 10.0 mi Calm Calm - N/A   Partly Cloudy
6:53 AM 30.9 °F - 28.9 °F 92% 30.15 in 10.0 mi Calm Calm - N/A   Scattered Clouds
7:53 AM 34.0 °F - 32.0 °F 92% 30.14 in 10.0 mi Calm Calm - 0.00 in   Overcast
8:53 AM 37.0 °F 34.5 °F 35.1 °F 93% 30.15 in 10.0 mi South 3.5 mph - 0.00 in   Overcast
9:53 AM 37.9 °F - 35.1 °F 89% 30.15 in 10.0 mi Calm Calm - N/A   Overcast
10:53 AM 42.1 °F - 36.0 °F 79% 30.14 in 10.0 mi Calm Calm - N/A   Overcast
11:53 AM 43.0 °F 40.3 °F 35.1 °F 74% 30.14 in 10.0 mi ENE 4.6 mph - N/A   Overcast
12:53 PM 44.1 °F 40.1 °F 35.1 °F 71% 30.12 in 10.0 mi North 6.9 mph - N/A   Clear
1:53 PM 45.0 °F 42.6 °F 36.0 °F 71% 30.09 in 10.0 mi Variable 4.6 mph - N/A   Partly Cloudy
2:53 PM 46.9 °F - 37.0 °F 68% 30.07 in 10.0 mi NNW 6.9 mph - N/A   Scattered Clouds
3:53 PM 48.0 °F - 36.0 °F 63% 30.07 in 10.0 mi North 8.1 mph - N/A   Mostly Cloudy
4:53 PM 46.9 °F - 35.1 °F 63% 30.07 in 10.0 mi NNE 6.9 mph - N/A   Mostly Cloudy
5:53 PM 46.0 °F 43.9 °F 35.1 °F 66% 30.08 in 10.0 mi North 4.6 mph - N/A   Mostly Cloudy
6:53 PM 45.0 °F 43.5 °F 34.0 °F 65% 30.09 in 10.0 mi North 3.5 mph - N/A   Overcast
7:53 PM 44.1 °F 39.0 °F 36.0 °F 73% 30.11 in 10.0 mi North 9.2 mph - 0.00 in   Overcast
8:53 PM 41.0 °F 33.9 °F 36.0 °F 82% 30.11 in 10.0 mi NNW 12.7 mph - N/A   Overcast
9:03 PM 41.0 °F 35.2 °F 37.4 °F 87% 30.06 in 10.0 mi North 9.2 mph - N/A   Overcast
9:53 PM 39.9 °F 33.9 °F 36.0 °F 86% 30.11 in 10.0 mi North 9.2 mph - N/A   Overcast
10:53 PM 37.9 °F 31.5 °F 35.1 °F 89% 30.11 in 10.0 mi NW 9.2 mph - N/A   Overcast
11:53 PM 37.0 °F 31.6 °F 35.1 °F 93% 30.12 in 9.0 mi WNW 6.9 mph - 0.01 in Rain Light Rain